This demonstration page uses our WeatherBlox Daily Observations layout. Learn more.

Left ArrowRight Arrow

Hourly Observations for August 15, 2022

Temp ( °F °C ) Dew Point ( °F °C ) Humidity (%) Winds ( mph kmh ) Pressure ( in mb ) Visibility ( mi km ) Precip ( " mm )
12:51 am 00:51 Partly Cloudy 70 21.1 56 13.3 61 61 S 3 6 30.02 1017 10 16 0.00 0.00
1:51 am 01:51 Mostly Clear 68 20 55 12.8 63 63 Calm 30.01 1016 10 16 0.00 0.00
2:51 am 02:51 Partly Cloudy 67 19.4 55 12.8 66 66 Calm 30.00 1016 10 16 0.00 0.00
3:51 am 03:51 Partly Cloudy 67 19.4 55 12.8 66 66 Calm 30.00 1016 10 16 0.00 0.00
4:51 am 04:51 Mostly Cloudy 65 18.3 55 12.8 70 70 Calm 29.99 1016 10 16 0.00 0.00
5:51 am 05:51 Clear 65 18.3 55 12.8 70 70 Calm 29.99 1016 10 16 0.00 0.00
6:51 am 06:51 Sunny 66 18.9 57 13.9 73 73 NNE 3 6 29.99 1016 10 16 0.00 0.00
7:51 am 07:51 Sunny 70 21.1 57 13.9 63 63 NNE 3 6 29.99 1016 10 16 0.00 0.00
8:51 am 08:51 Sunny 72 22.2 57 13.9 59 59 NW 3 6 29.99 1016 10 16 0.00 0.00
9:51 am 09:51 Sunny 74 23.3 57 13.9 56 56 S 3 6 29.99 1016 10 16 0.00 0.00
10:51 am 10:51 Sunny 79 26.1 55 12.8 44 44 Calm 29.98 1015 10 16 0.00 0.00
11:51 am 11:51 Sunny 79 26.1 55 12.8 44 44 SSW 6 9 29.97 1015 10 16 0.00 0.00
12:51 pm 12:51 Sunny 83 28.3 53 11.7 36 36 SE 8 13 29.96 1015 10 16 0.00 0.00
1:51 pm 13:51 Partly Cloudy 81 27.2 56 13.3 42 42 SW 9 15 29.96 1015 10 16 0.00 0.00
2:51 pm 14:51 Sunny 81 27.2 55 12.8 41 41 S 12 19 29.96 1015 10 16 0.00 0.00
3:51 pm 15:51 Sunny 84 28.9 56 13.3 38 38 SSE 10 17 29.95 1014 10 16 0.00 0.00
4:51 pm 16:51 Sunny 80 26.7 53 11.7 39 39 SE 12 19 29.94 1014 10 16 0.00 0.00
5:51 pm 17:51 Sunny 79 26.1 55 12.8 44 44 undefined N/A 29.94 1014 10 16 0.00 0.00
6:51 pm 18:51 Sunny 77 25 56 13.3 48 48 S 13 20 29.95 1014 10 16 0.00 0.00
7:51 pm 19:51 Sunny 75 23.9 54 12.2 48 48 undefined N/A 29.97 1015 10 16 0.00 0.00
8:51 pm 20:51 Clear 72 22.2 58 14.4 61 61 SW 6 9 29.98 1015 10 16 0.00 0.00
9:51 pm 21:51 Partly Cloudy 72 22.2 55 12.8 55 55 Calm 29.98 1015 10 16 0.00 0.00
10:51 pm 22:51 Clear 70 21.1 55 12.8 59 59 undefined N/A 29.99 1016 10 16 0.00 0.00
11:51 pm 23:51 Mostly Clear 70 21.1 55 12.8 59 59 Calm 30.00 1016 10 16 0.00 0.00

Powered by AerisWeather